Tracking 29606 objects as of 19-Sep-2024
HD Live streaming from Space Station
objects crossing your sky now

COSMOS 1823 DEB

Track COSMOS 1823 DEB now!
10-day predictions


NORAD ID: 18802
Int'l Code: 1987-020AN
Perigee: 1,472.0 km
Apogee: 1,634.7 km
Inclination: 73.6 °
Period: 117.0 minutes
Semi major axis: 7924 km
RCS: 0.0581 m2 (small)
Launch date: February 20, 1987
Source: Commonwealth of Independent States (former USSR) (CIS)
Launch site: PLESETSK MISSILE AND SPACE COMPLEX (PKMTR)

Note: This is SATELLITE DEBRIS
Your satellite tracking list
Your tracking list is empty




NASA's NSSDC Master Catalog

Two Line Element Set (TLE):
1 18802U 87020AN  24262.29851220  .00000276  00000-0  24325-2 0  9994
2 18802  73.5903 213.0050 0102654 166.5723 345.4172 12.30715803648708
Source of the keplerian elements: AFSPC